FW9022 Weather Reports


Display with metric or nautical units.
time (UTC)temp
F
wind
direction
speed
MPH
gust
MPH
rain 1hr
in
rain 24hr
in
rain mn
in
humidity
%
barometer
mb
20260906195823 79 360 3.0 7.0 0.01 0.01 0.01 75 1014.6
20260906194820 81 10 3.0 7.0 0.01 0.01 0.01 73 1014.6
20260906193833 80 184 1.0 2.0 0.01 0.01 0.01 79 1013.5
20260906192826 78 172 0.0 1.0 0.01 0.01 0.01 82 1013.7
20260906191840 78 172 1.0 4.0 0.01 0.01 0.01 76 1013.7
20260906190848 78 102 0.0 4.0 0.01 0.01 0.01 81 1013.7
20260906185827 81 29 1.0 7.0 0.00 0.00 0.00 76 1013.6
20260906184840 87 290 1.0 2.0 0.00 0.00 0.00 67 1013.6
20260906183851 88 290 1.0 4.0 0.00 0.00 0.00 65 1013.9
20260906182827 88 146 1.0 3.0 0.00 0.00 0.00 66 1013.6
20260906181820 86 130 2.0 3.0 0.00 0.00 0.00 66 1013.6
20260906180845 84 148 0.0 2.0 0.00 0.00 0.00 70 1013.9
20260906175824 84 148 0.0 3.0 0.00 0.00 0.00 69 1014.2
20260906174843 83 36 0.0 1.0 0.00 0.00 0.00 69 1014.2
20260906173835 83 36 0.0 0.0 0.00 0.00 0.00 70 1014.1
20260906172829 84 36 0.0 4.0 0.00 0.00 0.00 67 1014.0
20260906171826 84 36 0.0 3.0 0.00 0.00 0.00 73 1014.0
20260906170851 83 36 0.0 4.0 0.00 0.00 0.00 74 1014.1
20260906165831 84 19 0.0 3.0 0.00 0.00 0.00 70 1015.1
20260906164824 86 19 1.0 4.0 0.00 0.00 0.00 68 1015.1
20260906163823 87 27 2.0 5.0 0.00 0.00 0.00 66 1015.2
20260906162818 86 140 2.0 4.0 0.00 0.00 0.00 68 1015.4
20260906161832 85 80 1.0 3.0 0.00 0.00 0.00 70 1015.4
20260906160841 85 15 1.0 5.0 0.00 0.00 0.00 70 1015.8
20260906155820 86 355 2.0 3.0 0.00 0.00 0.00 69 1016.0
20260906154834 85 115 0.0 3.0 0.00 0.00 0.00 71 1016.0
20260906153848 85 123 1.0 3.0 0.00 0.00 0.00 73 1015.2
20260906152825 84 124 1.0 4.0 0.00 0.00 0.00 73 1015.4
20260906151819 84 142 3.0 4.0 0.00 0.00 0.00 72 1015.4
20260906150905 84 136 0.0 2.0 0.00 0.00 0.00 74 1015.5
20260906145824 82 200 0.0 1.0 0.00 0.00 0.00 79 1015.6
20260906144823 81 200 0.0 0.0 0.00 0.00 0.00 78 1015.6
20260906143837 81 200 0.0 0.0 0.00 0.00 0.00 79 1015.8
20260906142832 81 200 0.0 2.0 0.00 0.00 0.00 79 1015.8
20260906141830 80 200 0.0 1.0 0.00 0.00 0.00 81 1015.8
20260906140835 79 200 0.0 0.0 0.00 0.00 0.00 83 1015.9
20260906135855 78 200 0.0 0.0 0.00 0.00 0.00 85 1016.1
20260906134848 77 200 0.0 1.0 0.00 0.00 0.00 86 1016.1
20260906133825 77 200 0.0 1.0 0.00 0.00 0.00 86 1016.1
20260906132819 76 200 0.0 2.0 0.00 0.00 0.00 90 1016.3
20260906131832 74 214 0.0 0.0 0.00 0.00 0.00 92 1016.3
20260906130855 73 214 0.0 1.0 0.00 0.00 0.00 95 1016.3
20260906125837 71 232 0.0 1.0 0.00 0.00 0.00 98 1015.6
20260906124832 69 236 0.0 1.0 0.00 0.00 0.00 99 1015.6
20260906123825 68 236 0.0 0.0 0.00 0.00 0.00 99 1015.5
20260906122838 67 236 0.0 0.0 0.00 0.00 0.00 99 1015.4
20260906121854 67 236 0.0 0.0 0.00 0.00 0.00 98 1015.4
20260906120836 66 236 0.0 0.0 0.00 0.00 0.00 98 1015.2
20260906115836 66 236 0.0 0.0 0.00 0.00 0.00 98 1014.9
20260906114828 66 236 0.0 0.0 0.00 0.00 0.00 98 1014.9
20260906113826 66 236 0.0 0.0 0.00 0.00 0.00 98 1014.7
20260906112819 66 236 0.0 2.0 0.00 0.00 0.00 98 1014.7
20260906111832 66 236 0.0 0.0 0.00 0.00 0.00 98 1014.7
20260906110839 66 236 0.0 0.0 0.00 0.00 0.00 98 1015.4
20260906105818 66 236 0.0 0.0 0.00 0.00 0.00 98 1015.3
20260906104831 66 236 0.0 0.0 0.00 0.00 0.00 98 1015.3
20260906103824 66 236 0.0 0.0 0.00 0.00 0.00 98 1015.2
20260906102822 66 236 0.0 0.0 0.00 0.00 0.00 98 1015.1
20260906101855 67 236 0.0 0.0 0.00 0.00 0.00 98 1015.1
20260906100838 67 236 0.0 0.0 0.00 0.00 0.00 98 1014.8
20260906095856 67 236 0.0 0.0 0.00 0.00 0.00 98 1014.6
20260906094832 67 236 0.0 0.0 0.00 0.00 0.00 98 1014.6
20260906093845 67 236 0.0 0.0 0.00 0.00 0.00 98 1014.7
20260906092837 67 236 0.0 0.0 0.00 0.00 0.00 98 1014.6
20260906091829 68 236 0.0 0.0 0.00 0.00 0.00 98 1014.6
20260906090837 68 236 0.0 0.0 0.00 0.00 0.00 98 1014.8
20260906085836 68 236 0.0 1.0 0.00 0.00 0.00 98 1014.8
20260906084828 68 236 0.0 0.0 0.00 0.00 0.00 98 1014.8
20260906083825 68 236 0.0 0.0 0.00 0.00 0.00 97 1014.6
20260906082858 68 236 0.0 0.0 0.00 0.00 0.00 97 1014.6
20260906081830 68 236 0.0 0.0 0.00 0.00 0.00 98 1014.6
20260906080913 68 236 0.0 1.0 0.00 0.00 0.00 98 1014.7
20260906075834 68 236 0.0 1.0 0.00 0.00 0.00 97 1014.7
20260906074827 68 236 0.0 0.0 0.00 0.00 0.00 97 1014.7
20260906073820 68 236 0.0 0.0 0.00 0.00 0.00 97 1014.6
20260906072833 69 236 0.0 0.0 0.00 0.00 0.00 98 1014.6
20260906071830 69 236 0.0 0.0 0.00 0.00 0.00 97 1014.6
20260906070833 69 236 0.0 0.0 0.00 0.00 0.00 97 1013.9
20260906065830 69 236 0.0 0.0 0.00 0.00 0.00 97 1014.0
20260906064823 69 236 0.0 1.0 0.00 0.00 0.00 97 1014.0
20260906063818 69 236 0.0 1.0 0.00 0.00 0.00 97 1015.1
20260906062828 69 236 0.0 0.0 0.00 0.00 0.00 97 1015.2
20260906061819 70 236 0.0 1.0 0.00 0.00 0.00 97 1015.2
20260906060844 70 236 0.0 0.0 0.00 0.00 0.00 97 1015.5
20260906055840 70 236 0.0 0.0 0.00 0.00 0.00 97 1015.4
20260906054829 70 236 0.0 0.0 0.00 0.00 0.00 97 1015.4
20260906053839 70 236 0.0 0.0 0.00 0.00 0.00 97 1015.7
20260906052828 70 236 0.0 0.0 0.00 0.00 0.00 97 1015.8
20260906051822 71 236 0.0 0.0 0.00 0.00 0.00 97 1015.8
20260906050845 71 236 0.0 0.0 0.00 0.00 0.00 96 1015.3
20260906045822 71 236 0.0 1.0 0.00 0.00 0.00 97 1015.3
20260906044836 71 236 0.0 1.0 0.00 0.00 0.00 96 1015.3
20260906043827 71 252 0.0 1.0 0.00 0.00 0.00 96 1015.3
20260906042817 71 252 0.0 1.0 0.00 0.00 0.00 96 1015.4
20260906041848 71 252 0.0 0.0 0.00 0.00 0.00 96 1015.4
20260906040832 71 252 0.0 0.0 0.00 0.00 0.00 96 1015.9
20260906035848 72 252 0.0 1.0 0.00 0.00 0.00 96 1016.0
20260906034854 72 252 0.0 1.0 0.00 0.00 0.00 96 1016.0
20260906033824 72 252 0.0 0.0 0.00 0.00 0.00 96 1016.5
20260906032854 72 252 0.0 0.0 0.00 0.00 0.00 95 1016.5
20260906031829 72 252 0.0 1.0 0.00 0.00 0.00 95 1016.5
20260906030850 72 252 0.0 0.0 0.00 0.00 0.00 95 1016.5
20260906025826 72 252 0.0 0.0 0.00 0.00 0.00 95 1016.4
20260906024821 72 252 0.0 0.0 0.00 0.00 0.00 95 1016.4
20260906023831 72 252 0.0 0.0 0.00 0.00 0.00 95 1016.3
20260906022841 72 252 0.0 0.0 0.00 0.00 0.00 95 1016.0
20260906021830 72 252 0.0 0.0 0.00 0.00 0.00 95 1016.0
20260906020836 72 252 0.0 1.0 0.00 0.00 0.00 94 1015.2
20260906015832 73 252 0.0 1.0 0.00 0.00 0.00 94 1014.8
20260906014823 73 252 0.0 1.0 0.00 0.00 0.00 93 1014.8
20260906013833 73 252 0.0 0.0 0.00 0.00 0.00 93 1014.9
20260906012829 73 252 0.0 1.0 0.00 0.00 0.00 93 1014.8
20260906011819 74 252 0.0 0.0 0.00 0.00 0.00 92 1014.8
20260906010840 74 252 0.0 1.0 0.00 0.00 0.00 92 1015.1
20260906005817 75 252 0.0 1.0 0.00 0.00 0.00 91 1015.1
20260906004832 75 252 0.0 0.0 0.00 0.00 0.00 91 1015.1
20260906003822 75 252 0.0 1.0 0.00 0.00 0.00 89 1014.8
20260906002833 76 252 0.0 1.0 0.00 0.00 0.00 88 1014.7
20260906001845 76 252 0.0 0.0 0.00 0.00 0.00 88 1014.7
20260906000849 77 252 0.0 0.0 0.00 0.00 0.00 87 1014.8
20260905235845 78 252 0.0 0.0 0.00 0.00 0.00 84 1014.5
20260905234834 79 252 0.0 0.0 0.00 0.00 0.00 83 1014.5
20260905233824 80 252 0.0 0.0 0.00 0.00 0.00 81 1014.4
20260905232818 80 252 0.0 0.0 0.00 0.00 0.00 80 1014.3
20260905231829 81 252 0.0 0.0 0.00 0.00 0.00 78 1014.3
20260905230912 81 252 0.0 0.0 0.00 0.00 0.00 77 1014.2
20260905225826 81 252 0.0 0.0 0.00 0.00 0.00 78 1014.1
20260905224841 81 252 0.0 0.0 0.00 0.00 0.00 76 1014.1
20260905223831 82 252 0.0 0.0 0.00 0.00 0.00 75 1014.1
20260905222822 82 252 0.0 4.0 0.00 0.00 0.00 74 1014.2
20260905221832 83 157 0.0 1.0 0.00 0.00 0.00 73 1014.2
20260905220838 83 157 0.0 1.0 0.00 0.00 0.00 72 1014.3
20260905215833 82 157 0.0 2.0 0.00 0.00 0.00 73 1014.3
20260905214825 83 217 2.0 3.0 0.00 0.00 0.00 72 1014.3
20260905213820 84 254 0.0 3.0 0.00 0.00 0.00 70 1014.8
20260905212831 84 286 0.0 4.0 0.00 0.00 0.00 71 1014.9
20260905211825 83 168 0.0 2.0 0.00 0.00 0.00 71 1014.9
20260905210906 83 165 0.0 0.0 0.00 0.00 0.00 72 1015.0
20260905205828 82 165 0.0 1.0 0.00 0.00 0.00 75 1015.1
20260905204822 81 215 0.0 3.0 0.00 0.00 0.00 76 1015.1
20260905203835 81 211 0.0 2.0 0.00 0.00 0.00 77 1015.1
20260905202849 80 228 0.0 0.0 0.00 0.00 0.00 79 1015.4
20260905201846 80 228 3.0 5.0 0.00 0.00 0.00 79 1015.4
20260905200848 80 144 0.0 4.0 0.00 0.00 0.00 82 1015.6